Springfield, CO

8:10 AM MDT on September 27, 2016 (GMT -0600)
Springfield

Weather History for KSPD - August, 2014

Change the Weather History Date:

Sunday, August 10, 2014

  Actual Average Record
Temperature  
Mean Temperature 75 °F -  
Max Temperature 88 °F 89 °F 100 °F (2007)
Min Temperature 61 °F 62 °F 53 °F (2004)
Degree Days  
Heating Degree Days 0 0  
Month to date heating degree days 0 0  
Since 1 June heating degree days 28 23  
Since 1 July heating degree days 6 2  
Cooling Degree Days 10 10  
Month to date cooling degree days 89 107  
Year to date cooling degree days 684 718  
Since 1 June cooling degree days 626 664  
Growing Degree Days 24 (Base 50)    
Moisture  
Dew Point 54 °F    
Average Humidity 65    
Maximum Humidity 100    
Minimum Humidity 30    
Precipitation  
Precipitation 0.30 in 0.09 in 0.74 in (2002)
Month to date precipitation 0.34  
Year to date precipitation 9.75  
Sea Level Pressure  
Sea Level Pressure 30.05 in    
Wind  
Wind Speed 11 mph (NNW)    
Max Wind Speed 28 mph    
Max Gust Speed 35 mph    
T = Trace of Precipitation, MM = Missing Value Source: NWS Daily Summary

Daily Weather History Graph

Daily Weather History Graph

Search for Another Location

Airport or City:

Trip Planner

Search our weather history database for the weather conditions in past years. The results will help you decide how hot, cold, wet, or windy it might be!

Date:

Astronomy

Aug. 10, 2014 Rise Set
Actual Time 6:02 AM MDT 7:48 PM MDT
Civil Twilight 5:34 AM MDT 8:16 PM MDT
Nautical Twilight 5:00 AM MDT 8:50 PM MDT
Astronomical Twilight 4:24 AM MDT 9:26 PM MDT
Moon 7:38 PM MDT (8/10) 5:56 AM MDT (8/10)
Length of Visible Light 14h 41m
Length of Day
13h 45m
Full, 100% of the Moon is Illuminated
Aug 10
Full
Aug 10
Full
Aug 17
Last Quarter
Aug 25
New
Sep 2
First Quarter

Hourly Weather History & Observations

Time (MDT) Temp. Heat Index Dew Point Humidity Pressure Visibility Wind Dir Wind Speed Gust Speed Precip Events Conditions
12:56 AM 69.1 °F - 53.1 °F 57% 29.95 in - NW 12.7 mph - N/A   Unknown
1:56 AM 71.1 °F - 51.1 °F 49% 29.97 in - NW 12.7 mph - N/A   Unknown
2:56 AM 66.9 °F - 55.0 °F 66% 29.98 in - WNW 5.8 mph - N/A   Unknown
3:56 AM 66.0 °F - 54.0 °F 65% 29.99 in - WNW 5.8 mph - N/A   Unknown
4:56 AM 64.9 °F - 54.0 °F 68% 29.97 in - Calm Calm - N/A   Unknown
5:56 AM 62.1 °F - 54.0 °F 75% 30.02 in - NW 5.8 mph - N/A   Unknown
6:56 AM 63.0 °F - 54.0 °F 72% 30.03 in - NW 10.4 mph - N/A   Unknown
7:56 AM 69.1 °F - 53.1 °F 57% 30.03 in - NW 17.3 mph - N/A   Unknown
8:56 AM 73.9 °F - 54.0 °F 50% 30.05 in - North 20.7 mph 28.8 mph N/A   Unknown
9:56 AM 75.9 °F - 55.9 °F 50% 30.06 in - North 17.3 mph - N/A   Unknown
10:56 AM 79.0 °F - 55.9 °F 45% 30.08 in - NNW 16.1 mph 24.2 mph N/A   Unknown
11:56 AM 82.9 °F 81.9 °F 54.0 °F 37% 30.07 in - NNW 15.0 mph - N/A   Unknown
12:56 PM 84.0 °F - 52.0 °F 33% 30.06 in - NNW 15.0 mph 21.9 mph N/A   Unknown
1:56 PM 86.0 °F - 51.1 °F 30% 30.04 in - NNE 10.4 mph 21.9 mph N/A   Unknown
2:56 PM 86.0 °F - 51.1 °F 30% 30.03 in - NE 15.0 mph 20.7 mph N/A   Unknown
3:56 PM 84.0 °F - 51.1 °F 32% 30.04 in - NE 10.4 mph 19.6 mph N/A   Unknown
4:56 PM 82.9 °F - 51.1 °F 33% 30.03 in - NE 9.2 mph - N/A   Unknown
5:56 PM 82.0 °F - 50.0 °F 33% 30.03 in - ENE 8.1 mph - N/A   Unknown
6:56 PM 80.1 °F - 51.1 °F 36% 30.04 in - ENE 12.7 mph - N/A   Unknown
7:56 PM 75.9 °F - 53.1 °F 45% 30.05 in - ENE 9.2 mph - N/A   Unknown
8:56 PM 73.9 °F - 55.9 °F 53% 30.09 in - East 8.1 mph - N/A   Unknown
9:56 PM 61.0 °F - 60.1 °F 97% 30.18 in - WSW 16.1 mph 25.3 mph 0.25 in   Unknown
10:56 PM 62.1 °F - 60.1 °F 93% 30.16 in - WSW 11.5 mph - 0.05 in   Unknown
11:56 PM 62.1 °F - 59.0 °F 90% 30.14 in - SW 8.1 mph - N/A   Unknown